{"data":{"norad_id":48964,"intl_designator":"2021-059CP","name":"SPARTAN","alt_names":[],"object_type":"PAYLOAD","status":"ACTIVE","operator":null,"country":"BUL","launch_date":"2021-06-30","launch_site_code":"AFETR","launch_vehicle":null,"mission":null,"orbit_class":"UNKNOWN","rcs_meters":null,"size_class":null,"mass_kg":null,"dimensions":null,"purposes":[],"wikipedia_slug":null,"has_3d_model":false,"image_url":null,"decayed_at":null,"tle_current":{"epoch":"2026-09-20T13:13:30.730368Z","epoch_age_seconds":93404,"freshness":"FRESH","line1":"1 48964U 21059CP  26263.55105012  .00938380  25759-5  57595-3 0  9994","line2":"2 48964  97.6557 116.7003 0003687 243.2841 116.8068 16.18115820293106","mean_motion":16.1811582,"eccentricity":0.0003687,"inclination_deg":97.6557,"raan_deg":116.7003,"arg_perigee_deg":243.2841,"mean_anomaly_deg":116.8068,"bstar":0.00057595,"rev_number":29310,"period_min":88.992393634715,"perigee_km":222.23811366138,"apogee_km":227.10702543797,"semimajor_km":6602.8095695497,"source":"CELESTRAK","updated_at":"2026-09-21T09:00:07.906012Z"}}}